Hayward, WI

8:57 PM CDT on June 26, 2017 (GMT -0500)
Sawyer County

Weather History for KHYR - February, 2013

Change the Weather History Date:

Sunday, February 17, 2013

  Actual Average Record
Temperature  
Mean Temperature 3 °F -  
Max Temperature 24 °F 26 °F 55 °F (2017)
Min Temperature -18 °F -1 °F -20 °F (2001)
Degree Days  
Heating Degree Days 62    
Moisture  
Dew Point -4 °F    
Average Humidity 63    
Maximum Humidity 78    
Minimum Humidity 53    
Precipitation  
Precipitation 0.00 in - - ()
Sea Level Pressure  
Sea Level Pressure 30.04 in    
Wind  
Wind Speed 5 mph (SSE)    
Max Wind Speed 15 mph    
Max Gust Speed 22 mph    
Visibility 10 miles    
Events      
Averages and records for this station are not official NWS values.
T = Trace of Precipitation, MM = Missing Value Source: NWS Daily Summary

Daily Weather History Graph

Daily Weather History Graph

Search for Another Location

Airport or City:

Trip Planner

Search our weather history database for the weather conditions in past years. The results will help you decide how hot, cold, wet, or windy it might be!

Date:

Astronomy

Feb. 17, 2013 Rise Set
Actual Time 7:04 AM CST 5:35 PM CST
Civil Twilight 6:34 AM CST 6:05 PM CST
Nautical Twilight 5:59 AM CST 6:40 PM CST
Astronomical Twilight 5:24 AM CST 7:15 PM CST
Moon 10:32 AM CST (2/17) 12:56 AM CST (2/17)
Length of Visible Light 11h 31m
Length of Day
10h 30m
Waxing Crescent, 49% of the Moon is Illuminated
Feb 17
Waxing Crescent
Feb 17
First Quarter
Feb 25
Full
Mar 4
Last Quarter
Mar 11
New

Hourly Weather History & Observations

Time (CST) Temp. Windchill Dew Point Humidity Pressure Visibility Wind Dir Wind Speed Gust Speed Precip Events Conditions
12:53 AM -15.0 °F - -20.0 °F 78% 30.21 in 10.0 mi Calm Calm - N/A   Clear
1:53 AM -15.0 °F - -20.9 °F 75% 30.21 in 10.0 mi Calm Calm - N/A   Clear
2:53 AM -17.0 °F - -24.0 °F 70% 30.21 in 10.0 mi Calm Calm - N/A   Clear
3:53 AM -18.0 °F - -24.0 °F 74% 30.19 in 10.0 mi Calm Calm - N/A   Clear
4:53 AM -18.0 °F - -25.1 °F 70% 30.18 in 10.0 mi Calm Calm - N/A   Clear
5:53 AM -18.0 °F - -25.1 °F 70% 30.17 in 10.0 mi Calm Calm - N/A   Clear
6:53 AM -17.0 °F - -23.1 °F 74% 30.17 in 10.0 mi Calm Calm - N/A   Clear
7:53 AM -13.0 °F - -18.0 °F 78% 30.16 in 10.0 mi Calm Calm - N/A   Scattered Clouds
8:53 AM 5.0 °F -2.1 °F -2.0 °F 73% 30.13 in 10.0 mi Variable 3.5 mph - N/A   Clear
9:53 AM 10.9 °F -1.8 °F -0.9 °F 59% 30.11 in 10.0 mi South 9.2 mph - N/A   Clear
10:53 AM 16.0 °F 2.3 °F 1.9 °F 54% 30.09 in 10.0 mi South 12.7 mph 18.4 mph N/A   Clear
11:53 AM 18.0 °F 4.2 °F 3.9 °F 54% 30.08 in 10.0 mi SSE 13.8 mph 18.4 mph N/A   Clear
12:53 PM 21.0 °F 8.6 °F 7.0 °F 55% 30.02 in 10.0 mi SE 12.7 mph 18.4 mph N/A   Clear
1:53 PM 23.0 °F 13.1 °F 8.1 °F 53% 29.99 in 10.0 mi SSE 9.2 mph 18.4 mph N/A   Scattered Clouds
2:53 PM 24.1 °F 12.5 °F 9.0 °F 53% 29.96 in 10.0 mi SSE 12.7 mph - N/A   Clear
3:53 PM 24.1 °F 14.4 °F 9.0 °F 53% 29.94 in 10.0 mi SSE 9.2 mph - N/A   Mostly Cloudy
4:53 PM 23.0 °F 12.4 °F 9.0 °F 55% 29.91 in 10.0 mi SSE 10.4 mph - N/A   Clear
5:53 PM 21.9 °F 9.8 °F 8.1 °F 55% 29.89 in 10.0 mi SSE 12.7 mph 21.9 mph N/A   Clear
6:53 PM 21.9 °F 9.8 °F 8.1 °F 55% 29.88 in 10.0 mi SSE 12.7 mph 19.6 mph N/A   Clear
7:53 PM 21.9 °F 8.7 °F 8.1 °F 55% 29.86 in 10.0 mi SSE 15.0 mph 20.7 mph N/A   Scattered Clouds
8:53 PM 21.0 °F 8.1 °F 8.1 °F 57% 29.84 in 10.0 mi SSE 13.8 mph 21.9 mph N/A   Mostly Cloudy
9:53 PM 21.0 °F 9.3 °F 9.0 °F 60% 29.84 in 10.0 mi SSE 11.5 mph 20.7 mph N/A   Overcast
11:53 PM 21.0 °F 8.6 °F 10.9 °F 65% 29.78 in 10.0 mi SSE 12.7 mph 17.3 mph N/A   Clear